This is the latest recevied weather packets stored in our database for station/object JF1AJE-13. If no packets are shown the sender has not sent any weather packets the latest 10 day(s).
| Time | Temp. | Humidity | Pressure | Rain* | Wind** | Luminosity | Snow |
|---|---|---|---|---|---|---|---|
| 1777820756 | 18.89° C | 72% | 997.8 hPa | 0 mm | - | - | - |
| 1777819554 | 18.89° C | 74% | 998.2 hPa | 0 mm | - | - | - |
| 1777818354 | 18.89° C | 74% | 998.8 hPa | 0 mm | - | - | - |
| 1777817154 | 18.89° C | 72% | 998.9 hPa | 0 mm | - | - | - |
| 1777815957 | 18.89° C | 71% | 999 hPa | 0 mm | - | - | - |
| 1777814754 | 18.89° C | 71% | 1000 hPa | 0 mm | - | - | - |
| 1777813555 | 18.89° C | 70% | 1000.3 hPa | 0 mm | - | - | - |
| 1777811153 | 18.89° C | 65% | 1000.8 hPa | 0 mm | - | - | - |
| 1777809954 | 19.44° C | 59% | 1001.1 hPa | 0 mm | - | - | - |
| 1777808758 | 20° C | 56% | 1000.8 hPa | 0 mm | - | - | - |
| 1777807554 | 20° C | 53% | 1000.7 hPa | 0 mm | - | - | - |
| 1777805153 | 21.11° C | 49% | 1000.4 hPa | 0 mm | - | - | - |
| 1777803952 | 21.11° C | 46% | 1000.5 hPa | 0 mm | - | - | - |
| 1777751522 | 15° C | 57% | 1007.8 hPa | 0 mm | - | - | - |
| 1777750324 | 15° C | 58% | 1007.8 hPa | 0 mm | - | - | - |
| 1777749123 | 15° C | 61% | 1007.8 hPa | 0 mm | - | - | - |
| 1777747923 | 15° C | 61% | 1007.7 hPa | 0 mm | - | - | - |
| 1777746724 | 15° C | 60% | 1007.6 hPa | 0 mm | - | - | - |
| 1777745522 | 15° C | 59% | 1007.3 hPa | 0 mm | - | - | - |
| 1777744324 | 15° C | 60% | 1007.2 hPa | 0 mm | - | - | - |
| 1777743122 | 14.44° C | 60% | 1007.5 hPa | 0 mm | - | - | - |
| 1777741922 | 14.44° C | 60% | 1007.4 hPa | 0 mm | - | - | - |
| 1777740722 | 14.44° C | 61% | 1007.5 hPa | 0 mm | - | - | - |
| 1777739521 | 14.44° C | 60% | 1007.5 hPa | 0 mm | - | - | - |
| 1777738322 | 14.44° C | 59% | 1007.4 hPa | 0 mm | - | - | - |
* Rain latest hour (hover to see other rain measurements)
** Current wind speed in m/s (hover to see current wind gust speed)